Time,TemperatureF,DewpointF,PressureIn,WindDirection,WindDirectionDegrees,WindSpeedMPH,WindSpeedGustMPH,Humidity,HourlyPrecipIn,Conditions,Clouds,dailyrainin,SoftwareType,DateUTC
2013-07-31 00:14:00,56.7,55.0,30.35,NW,319,0.0,4.0,92,0.00,,,0.00,weatherlink.com 1.10,2013-07-31 04:14:00,
2013-07-31 00:29:00,55.9,54.0,30.35,NW,314,2.0,4.0,93,0.00,,,0.00,weatherlink.com 1.10,2013-07-31 04:29:00,
2013-07-31 00:44:00,55.9,54.0,30.35,North,349,1.0,4.0,94,0.00,,,0.00,weatherlink.com 1.10,2013-07-31 04:44:00,
2013-07-31 01:00:00,55.9,54.0,30.34,NW,319,1.0,3.0,92,0.00,,,0.00,weatherlink.com 1.10,2013-07-31 05:00:00,
2013-07-31 01:14:00,54.9,53.0,30.34,NW,307,2.0,3.0,94,0.00,,,0.00,weatherlink.com 1.10,2013-07-31 05:14:00,
2013-07-31 01:29:00,54.2,53.0,30.34,NNW,328,2.0,4.0,95,0.00,,,0.00,weatherlink.com 1.10,2013-07-31 05:29:00,
2013-07-31 01:44:00,54.0,53.0,30.34,NNW,328,0.0,3.0,96,0.00,,,0.00,weatherlink.com 1.10,2013-07-31 05:44:00,
2013-07-31 01:59:00,53.7,53.0,30.34,NW,321,1.0,3.0,96,0.00,,,0.00,weatherlink.com 1.10,2013-07-31 05:59:00,
2013-07-31 02:14:00,53.3,53.0,30.34,NW,325,1.0,3.0,97,0.00,,,0.00,weatherlink.com 1.10,2013-07-31 06:14:00,
2013-07-31 02:29:00,53.0,52.0,30.34,NW,319,2.0,4.0,96,0.00,,,0.00,weatherlink.com 1.10,2013-07-31 06:29:00,
2013-07-31 02:44:00,52.6,52.0,30.34,NW,323,0.0,2.0,96,0.00,,,0.00,weatherlink.com 1.10,2013-07-31 06:44:00,
2013-07-31 02:59:00,52.5,52.0,30.34,NW,322,0.0,2.0,97,0.00,,,0.00,weatherlink.com 1.10,2013-07-31 06:59:00,
2013-07-31 03:14:00,52.2,51.0,30.34,NW,325,1.0,2.0,97,0.00,,,0.00,weatherlink.com 1.10,2013-07-31 07:14:00,
2013-07-31 03:29:00,53.0,53.0,30.35,NW,311,0.0,4.0,98,0.00,,,0.00,weatherlink.com 1.10,2013-07-31 07:29:00,
2013-07-31 03:44:00,52.6,52.0,30.35,NW,322,2.0,2.0,97,0.00,,,0.00,weatherlink.com 1.10,2013-07-31 07:44:00,
2013-07-31 03:59:00,53.3,53.0,30.34,NW,325,2.0,2.0,98,0.00,,,0.00,weatherlink.com 1.10,2013-07-31 07:59:00,
2013-07-31 04:14:00,53.5,53.0,30.35,NNW,332,2.0,2.0,98,0.00,,,0.00,weatherlink.com 1.10,2013-07-31 08:14:00,
2013-07-31 04:29:00,53.4,53.0,30.35,NNW,329,2.0,2.0,97,0.00,,,0.00,weatherlink.com 1.10,2013-07-31 08:29:00,
2013-07-31 04:44:00,53.3,53.0,30.35,NNW,329,0.0,1.0,97,0.00,,,0.00,weatherlink.com 1.10,2013-07-31 08:44:00,
2013-07-31 04:59:00,53.3,53.0,30.35,NNW,328,0.0,0.0,98,0.00,,,0.00,weatherlink.com 1.10,2013-07-31 08:59:00,
2013-07-31 05:14:00,53.2,53.0,30.35,NNW,328,1.0,2.0,98,0.00,,,0.00,weatherlink.com 1.10,2013-07-31 09:14:00,
2013-07-31 05:29:00,53.3,53.0,30.36,NW,326,1.0,2.0,98,0.00,,,0.00,weatherlink.com 1.10,2013-07-31 09:29:00,
2013-07-31 05:44:00,53.1,53.0,30.36,NW,323,0.0,2.0,98,0.00,,,0.00,weatherlink.com 1.10,2013-07-31 09:44:00,
2013-07-31 05:59:00,52.6,52.0,30.37,NW,323,0.0,0.0,97,0.00,,,0.00,weatherlink.com 1.10,2013-07-31 09:59:00,
2013-07-31 06:14:00,52.6,52.0,30.37,NW,323,0.0,0.0,98,0.00,,,0.00,weatherlink.com 1.10,2013-07-31 10:14:00,
2013-07-31 06:29:00,53.2,53.0,30.37,NW,323,0.0,0.0,98,0.00,,,0.00,weatherlink.com 1.10,2013-07-31 10:29:00,
2013-07-31 06:44:00,53.4,53.0,30.37,NW,323,0.0,1.0,98,0.00,,,0.00,weatherlink.com 1.10,2013-07-31 10:44:00,
2013-07-31 06:59:00,54.4,54.0,30.37,NW,323,0.0,0.0,98,0.00,,,0.00,weatherlink.com 1.10,2013-07-31 10:59:00,
2013-07-31 07:14:00,55.0,55.0,30.37,NW,323,0.0,0.0,98,0.00,,,0.00,weatherlink.com 1.10,2013-07-31 11:14:00,
2013-07-31 07:30:00,55.5,55.0,30.37,NW,323,0.0,0.0,98,0.00,,,0.00,weatherlink.com 1.10,2013-07-31 11:30:00,
2013-07-31 07:45:00,55.9,55.0,30.37,WSW,239,0.0,0.0,98,0.00,,,0.00,weatherlink.com 1.10,2013-07-31 11:45:00,
2013-07-31 08:00:00,57.1,57.0,30.37,SE,141,0.0,0.0,98,0.00,,,0.00,weatherlink.com 1.10,2013-07-31 12:00:00,
2013-07-31 08:15:00,58.5,58.0,30.37,SE,143,1.0,2.0,98,0.00,,,0.00,weatherlink.com 1.10,2013-07-31 12:15:00,
2013-07-31 08:30:00,60.8,59.0,30.37,South,190,1.0,1.0,94,0.00,,,0.00,weatherlink.com 1.10,2013-07-31 12:30:00,
2013-07-31 08:45:00,64.2,61.0,30.37,SSE,160,0.0,2.0,90,0.00,,,0.00,weatherlink.com 1.10,2013-07-31 12:45:00,
2013-07-31 09:00:00,64.9,60.0,30.36,SE,125,0.0,1.0,85,0.01,,,0.01,weatherlink.com 1.10,2013-07-31 13:00:00,
2013-07-31 09:15:00,65.9,61.0,30.36,WSW,256,0.0,4.0,83,0.01,,,0.01,weatherlink.com 1.10,2013-07-31 13:15:00,
2013-07-31 09:30:00,65.8,58.0,30.36,NNW,329,1.0,5.0,76,0.01,,,0.01,weatherlink.com 1.10,2013-07-31 13:30:00,
2013-07-31 09:45:00,66.8,57.0,30.35,NNW,338,2.0,4.0,72,0.01,,,0.01,weatherlink.com 1.10,2013-07-31 13:45:00,
2013-07-31 10:00:00,69.6,61.0,30.34,ESE,112,2.0,5.0,74,0.00,,,0.01,weatherlink.com 1.10,2013-07-31 14:00:00,
2013-07-31 10:15:00,70.7,60.0,30.34,SSW,197,4.0,5.0,69,0.00,,,0.01,weatherlink.com 1.10,2013-07-31 14:15:00,
2013-07-31 10:30:00,70.8,59.0,30.35,SSE,154,3.0,5.0,66,0.00,,,0.01,weatherlink.com 1.10,2013-07-31 14:30:00,
2013-07-31 10:45:00,70.6,55.0,30.34,North,352,1.0,3.0,58,0.00,,,0.01,weatherlink.com 1.10,2013-07-31 14:45:00,
2013-07-31 11:00:00,71.1,55.0,30.34,SSW,207,1.0,3.0,58,0.00,,,0.01,weatherlink.com 1.10,2013-07-31 15:00:00,
2013-07-31 11:15:00,71.8,56.0,30.34,ENE,72,2.0,4.0,58,0.00,,,0.01,weatherlink.com 1.10,2013-07-31 15:15:00,
2013-07-31 11:30:00,73.4,57.0,30.33,SE,128,3.0,5.0,57,0.00,,,0.01,weatherlink.com 1.10,2013-07-31 15:30:00,
2013-07-31 11:45:00,72.7,55.0,30.33,WNW,302,0.0,6.0,55,0.00,,,0.01,weatherlink.com 1.10,2013-07-31 15:45:00,
2013-07-31 12:00:00,73.5,57.0,30.32,SSE,167,2.0,4.0,57,0.00,,,0.01,weatherlink.com 1.10,2013-07-31 16:00:00,
2013-07-31 12:15:00,73.7,56.0,30.32,SSE,150,4.0,6.0,54,0.00,,,0.01,weatherlink.com 1.10,2013-07-31 16:15:00,
2013-07-31 12:45:00,73.5,57.0,30.31,NE,54,0.0,4.0,57,0.00,,,0.01,weatherlink.com 1.10,2013-07-31 16:45:00,
2013-07-31 13:00:00,73.0,57.0,30.31,North,9,1.0,6.0,58,0.00,,,0.01,weatherlink.com 1.10,2013-07-31 17:00:00,
2013-07-31 13:16:00,73.4,57.0,30.30,SSW,203,1.0,6.0,57,0.00,,,0.01,weatherlink.com 1.10,2013-07-31 17:16:00,
2013-07-31 13:31:00,75.5,57.0,30.30,SE,139,2.0,5.0,53,0.00,,,0.01,weatherlink.com 1.10,2013-07-31 17:31:00,
2013-07-31 13:46:00,73.7,56.0,30.30,NNW,346,3.0,4.0,54,0.00,,,0.01,weatherlink.com 1.10,2013-07-31 17:46:00,
2013-07-31 14:01:00,73.3,57.0,30.30,SW,224,0.0,3.0,57,0.00,,,0.01,weatherlink.com 1.10,2013-07-31 18:01:00,
2013-07-31 14:16:00,73.0,56.0,30.29,East,89,1.0,6.0,56,0.00,,,0.01,weatherlink.com 1.10,2013-07-31 18:16:00,
2013-07-31 14:31:00,72.2,57.0,30.29,SSW,197,0.0,5.0,59,0.00,,,0.01,weatherlink.com 1.10,2013-07-31 18:31:00,
2013-07-31 14:46:00,72.2,55.0,30.29,SSW,200,3.0,4.0,55,0.00,,,0.01,weatherlink.com 1.10,2013-07-31 18:46:00,
2013-07-31 15:01:00,71.4,55.0,30.29,ENE,60,0.0,3.0,57,0.00,,,0.01,weatherlink.com 1.10,2013-07-31 19:01:00,
2013-07-31 15:16:00,71.4,57.0,30.28,SSE,150,2.0,4.0,61,0.00,,,0.01,weatherlink.com 1.10,2013-07-31 19:16:00,
2013-07-31 15:31:00,72.0,57.0,30.28,East,99,1.0,7.0,59,0.00,,,0.01,weatherlink.com 1.10,2013-07-31 19:31:00,
2013-07-31 15:46:00,72.6,57.0,30.28,ESE,117,1.0,6.0,58,0.00,,,0.01,weatherlink.com 1.10,2013-07-31 19:46:00,
2013-07-31 16:01:00,73.6,56.0,30.27,SE,144,5.0,8.0,55,0.00,,,0.01,weatherlink.com 1.10,2013-07-31 20:01:00,
2013-07-31 16:16:00,74.4,58.0,30.26,WSW,248,1.0,5.0,57,0.00,,,0.01,weatherlink.com 1.10,2013-07-31 20:16:00,
2013-07-31 16:31:00,76.4,58.0,30.26,SW,226,3.0,3.0,54,0.00,,,0.01,weatherlink.com 1.10,2013-07-31 20:31:00,
2013-07-31 17:01:00,73.4,59.0,30.25,South,173,2.0,3.0,60,0.00,,,0.01,weatherlink.com 1.10,2013-07-31 21:01:00,
2013-07-31 17:16:00,72.9,58.0,30.25,ESE,108,0.0,4.0,59,0.00,,,0.01,weatherlink.com 1.10,2013-07-31 21:16:00,
2013-07-31 17:31:00,71.6,61.0,30.25,ESE,106,0.0,1.0,70,0.00,,,0.01,weatherlink.com 1.10,2013-07-31 21:31:00,
2013-07-31 17:46:00,70.7,62.0,30.25,North,354,0.0,1.0,73,0.00,,,0.01,weatherlink.com 1.10,2013-07-31 21:46:00,
2013-07-31 18:01:00,69.7,61.0,30.24,North,353,0.0,1.0,74,0.00,,,0.01,weatherlink.com 1.10,2013-07-31 22:01:00,
2013-07-31 18:16:00,69.3,60.0,30.24,SW,224,0.0,3.0,73,0.00,,,0.01,weatherlink.com 1.10,2013-07-31 22:16:00,
2013-07-31 18:31:00,68.3,61.0,30.24,WNW,291,1.0,2.0,78,0.00,,,0.01,weatherlink.com 1.10,2013-07-31 22:31:00,
2013-07-31 18:46:00,68.7,62.0,30.23,SW,225,0.0,1.0,78,0.00,,,0.01,weatherlink.com 1.10,2013-07-31 22:46:00,
2013-07-31 20:46:00,63.3,59.0,30.22,NW,322,0.0,1.0,86,0.00,,,0.01,weatherlink.com 1.10,2013-08-01 00:46:00,
2013-07-31 21:01:00,63.1,59.0,30.22,NW,321,0.0,1.0,87,0.00,,,0.01,weatherlink.com 1.10,2013-08-01 01:01:00,
2013-07-31 21:16:00,62.7,59.0,30.22,NW,321,0.0,1.0,88,0.00,,,0.01,weatherlink.com 1.10,2013-08-01 01:16:00,
2013-07-31 21:31:00,62.4,60.0,30.23,NW,321,0.0,1.0,90,0.00,,,0.01,weatherlink.com 1.10,2013-08-01 01:31:00,
2013-07-31 21:46:00,61.8,59.0,30.23,NW,321,0.0,2.0,91,0.00,,,0.01,weatherlink.com 1.10,2013-08-01 01:46:00,
2013-07-31 22:01:00,61.2,59.0,30.23,NW,322,1.0,1.0,92,0.00,,,0.01,weatherlink.com 1.10,2013-08-01 02:01:00,
2013-07-31 22:16:00,60.8,59.0,30.23,NW,322,1.0,2.0,92,0.00,,,0.01,weatherlink.com 1.10,2013-08-01 02:16:00,
2013-07-31 22:31:00,60.4,58.0,30.23,NW,322,0.0,1.0,93,0.00,,,0.01,weatherlink.com 1.10,2013-08-01 02:31:00,
2013-07-31 22:46:00,60.0,58.0,30.23,NW,321,0.0,1.0,94,0.00,,,0.01,weatherlink.com 1.10,2013-08-01 02:46:00,
2013-07-31 23:16:00,59.8,58.0,30.23,NW,323,0.0,1.0,94,0.00,,,0.01,weatherlink.com 1.10,2013-08-01 03:16:00,
2013-07-31 23:31:00,59.6,58.0,30.23,NW,323,0.0,2.0,94,0.00,,,0.01,weatherlink.com 1.10,2013-08-01 03:31:00,
2013-07-31 23:46:00,59.3,58.0,30.22,NW,326,0.0,2.0,95,0.00,,,0.01,weatherlink.com 1.10,2013-08-01 03:46:00,